Tracking 19827 objects as of 21-Aug-2019
HD Live streaming from Space Station
objects crossing your sky now

ARIANE 42L R/B

Track ARIANE 42L R/B now!
10-day predictions


NORAD ID: 25586
Int'l Code: 1998-075B
Perigee: 205.3 km
Apogee: 16,713.6 km
Inclination: 7.5 °
Period: 299.6 minutes
Semi major axis: 14830 km
RCS: 21.3079 m2 (large)
Launch date: December 22, 1998
Source: France (FR)
Launch site: FRENCH GUIANA (FRGUI)

Note: This is a ROCKET BODY
aabbcc
Your satellite tracking list
Your tracking list is empty




NASA's NSSDC Master Catalog

Two Line Element Set (TLE):
1 25586U 98075B   19232.37085945 +.00033251 +00000-0 +78956-3 0  9995
2 25586 007.4572 246.2305 5565662 094.1344 327.8345 04.80696152266259
Source of the keplerian elements: AFSPC